+ View the NASA Portal
+ Center for Near-Earth Object Studies
IMPORTANT:
The SSD Announcement email list is now available. Major changes are coming in the near future, including possible hostname and/or URL changes. To be notified of such changes, subscribe to this email list.
Please visit
this page
for more details.
Don't show this message again
JPL Small-Body Database Browser
Search:
[
help
]
266743 (2009 SV47)
Classification:
Main-belt Asteroid
SPK-ID:
2266743
[
Ephemeris
|
Orbit Diagram
|
Orbital Elements
|
Mission Design
|
Physical Parameters
|
Discovery Circumstances
]
[ show orbit diagram ]
Orbital Elements at Epoch 2458600.5 (2019-Apr-27.0) TDB
Reference:
JPL 14
(heliocentric ecliptic J2000)
Element
Value
Uncertainty (1-sigma)
Units
e
.1406497975913264
5.1261e-08
a
3.03126035678659
3.7371e-08
au
q
2.604914201157944
1.7342e-07
au
i
3.836232397345595
5.1634e-06
deg
node
252.9280605371492
9.2078e-05
deg
peri
146.5703739974889
9.5388e-05
deg
M
280.5004903845894
2.6207e-05
deg
t
p
2459026.191751968948
(2020-Jun-25.69175197)
0.00014472
TDB
period
1927.672654211123
5.28
3.5648e-05
9.76e-08
d
yr
n
.1867536997080688
3.4536e-09
deg/d
Q
3.457606512415236
4.2627e-08
au
Orbit Determination Parameters
# obs. used (total)
248
data-arc span
6361 days (17.42 yr)
first obs. used
2002-04-07
last obs. used
2019-09-06
planetary ephem.
DE431
SB-pert. ephem.
SB431-N16
condition code
0
norm. resid. RMS
.56206
source
ORB
producer
Otto Matic
solution date
2019-Sep-24 04:36:50
Additional Information
Earth MOID
= 1.61344 au
Jupiter MOID
= 1.95192 au
T_jup
= 3.225
[ show covariance matrix ]
[
Ephemeris
|
Orbit Diagram
|
Orbital Elements
|
Mission Design
|
Physical Parameters
|
Discovery Circumstances
]
Physical Parameter Table
Parameter
Symbol
Value
Units
Sigma
Reference
Notes
absolute magnitude
H
16.1
n/a
MPO450146
diameter
diameter
3.601
km
0.716
urn:nasa:pds:neowise_diameters_albedos::2.0[mainbelt] (http://adsabs.harvard.edu/abs/2011ApJ...741...68M)
geometric albedo
albedo
0.049
0.023
urn:nasa:pds:neowise_diameters_albedos::2.0[mainbelt] (http://adsabs.harvard.edu/abs/2011ApJ...741...68M)
266743 (2009 SV47)
Discovered 2009-Sep-16 by Spacewatch at Kitt Peak
Reference:
20110218/Numbers.arc
Last Updated:
2011-02-22
[
Ephemeris
|
Orbit Diagram
|
Orbital Elements
|
Mission Design
|
Physical Parameters
|
Discovery Circumstances
]
2019-Dec-15 05:41 UT
(server date/time)
Site Manager:
Ryan S. Park
Webmaster
:
Alan B. Chamberlin